Temp
70 72 73 74 74 74 74 73 73 74 75 75 75 75 75 76 76 76 76 76 77 77 78 77 77 77 77 77 76 75 75 75 75 75 75 76 76 76 75 74 74 73 74
72 73 72 74 74 74 74 74 74 74 75 75 75 75 75 75 75 75 76 76 77 77 77 77 77 77 77 75 74 74 74 73 74 74 75 76 75 75 74 73 73 73 74
71 72 73 73 74 74 75 75 74 75 75 75 75 75 75 75 75 75 75 76 76 77 77 77 76 76 75 74 73 73 73 72 72 73 74 72 72 74 74 73 73 73 73
72 72 73 73 73 74 74 74 74 75 75 75 75 75 75 75 75 75 75 75 76 77 77 77 77 76 74 73 73 72 72 72 72 72 71 72 73 74 74 74 74 73 73
71 72 72 72 73 74 74 74 74 74 74 74 74 75 75 75 75 75 75 75 75 77 78 77 76 74 73 72 72 71 71 71 71 71 70 71 71 73 73 73 72 72 72
71 71 70 71 71 72 71 73 72 71 70 70 69 69 71 74 75 75 74 75 76 76 77 76 74 73 72 71 71 71 70 70 70 69 70 71 71 73 72 71 71 71 71
68 68 69 69 70 71 71 72 71 71 70 69 67 68 70 71 73 74 73 74 75 75 75 74 73 71 70 71 70 70 68 68 67 66 69 69 70 71 72 71 71 71 70
67 67 68 70 70 70 71 71 70 70 69 69 69 69 70 70 72 72 73 73 73 73 73 72 71 71 70 70 69 68 68 68 67 65 69 69 70 71 71 71 70 70 70
67 66 66 67 69 70 69 69 68 68 69 69 69 68 70 69 71 72 72 72 72 72 71 71 70 70 70 69 69 68 67 67 65 66 68 69 71 72 71 71 70 70 70
65 66 65 67 68 66 65 68 68 68 68 67 68 68 69 68 69 72 70 71 71 71 70 70 69 70 69 68 68 67 66 67 64 62 67 68 71 71 71 70 70 70 70
65 64 65 66 67 65 64 66 67 68 67 67 68 68 67 67 68 72 69 69 70 69 69 69 69 68 67 68 68 67 67 65 64 63 63 69 71 71 71 70 70 69 69
62 63 64 67 66 65 65 64 63 65 64 63 64 64 65 68 68 69 68 68 68 68 68 68 68 67 66 66 67 67 65 65 64 62 64 69 71 71 70 70 69 69 68
63 63 64 64 65 65 65 63 63 62 62 62 63 65 66 67 67 66 66 66 66 66 64 64 65 63 62 64 66 65 64 64 64 64 66 68 70 71 70 69 69 68 68
62 63 63 64 63 63 64 64 63 63 61 62 64 65 66 65 64 65 65 65 64 61 59 58 59 60 61 63 66 64 63 63 62 63 65 66 69 70 70 70 69 68 67
62 62 62 63 63 64 63 62 63 64 63 64 64 65 65 64 64 64 64 64 64 62 60 57 59 61 61 63 66 64 62 62 61 62 62 65 67 69 70 70 69 68 67
62 62 62 61 62 61 60 61 62 64 63 64 65 64 64 64 64 63 63 63 63 64 63 63 62 59 62 63 65 64 63 63 62 60 62 63 65 67 69 69 69 68 68
62 62 61 60 60 58 58 60 62 64 64 63 64 64 64 64 63 63 62 62 63 63 63 62 60 60 61 62 63 62 62 62 61 60 59 59 62 64 65 68 68 68 68
62 61 61 62 59 58 59 60 61 62 63 63 63 63 64 65 64 63 63 62 63 60 61 59 61 60 61 60 60 61 61 61 61 61 60 59 58 62 63 65 66 67 67
62 62 62 61 59 59 59 60 61 62 61 62 62 63 64 64 64 63 64 62 62 61 59 61 59 61 61 60 60 60 60 59 60 62 59 57 57 57 58 63 64 64 65
62 62 62 62 61 60 59 60 60 60 61 62 62 62 63 64 65 64 63 61 61 61 61 60 61 61 63 60 65 61 60 59 57 59 59 61 58 58 58 59 60 61 62
60 60 60 61 61 60 59 58 58 58 59 60 62 62 63 64 64 64 64 62 62 62 63 62 61 62 59 59 56 55 56 57 58 57 57 58 59 59 58 59 59 59 61
59 60 59 60 61 61 61 60 60 60 60 61 61 61 62 63 64 64 65 63 64 62 61 61 60 57 57 58 58 55 52 55 57 56 56 57 57 60 60 61 60 60 60
58 59 59 61 61 61 61 61 60 60 59 59 59 59 60 61 63 64 63 63 62 61 61 60 61 62 59 57 60 54 50 50 51 54 55 57 56 57 59 60 61 61 60
58 59 58 61 61 61 61 60 59 58 57 59 59 61 61 60 61 64 64 62 61 60 60 62 63 62 57 57 56 59 57 55 50 48 53 53 55 57 58 59 60 60 61
59 58 58 61 62 62 61 61 59 59 60 60 58 55 59 58 60 62 62 61 61 62 60 62 60 59 58 56 57 55 54 54 53 51 49 52 53 56 57 58 59 59 61
59 58 59 59 60 62 61 61 60 59 59 59 59 58 58 59 58 59 61 62 61 61 61 59 60 60 59 57 56 58 56 54 53 52 50 50 52 55 60 57 56 58 59
MSLP
1009.98 1009.84 1009.97 1010.04 1010.23 1010.33 1010.26 1010.25 1010.79 1011.19 1011.43 1011.53 1011.46 1011.51 1011.88 1012.42 1012.96 1013.24 1013.52 1013.79 1013.88 1014.19 1014.57 1014.85 1015.33 1015.73 1015.99 1016.40 1016.74 1016.99 1017.32 1017.46 1017.74 1018.00 1018.15 1018.57 1018.74 1018.98 1019.20 1019.24 1019.30 1019.52 1019.64
1009.27 1009.60 1009.80 1009.93 1010.25 1010.46 1010.45 1010.47 1010.65 1011.15 1011.48 1011.68 1012.05 1012.32 1012.58 1012.45 1013.14 1013.50 1013.73 1014.10 1014.28 1014.45 1014.82 1015.01 1015.47 1015.97 1016.26 1016.79 1017.13 1017.44 1017.84 1018.01 1018.24 1018.39 1018.71 1019.01 1019.32 1019.58 1019.70 1019.88 1019.86 1020.03 1020.22
1009.00 1009.22 1009.49 1009.74 1010.04 1010.49 1010.79 1010.77 1010.84 1011.08 1011.54 1011.92 1012.25 1012.69 1012.87 1013.46 1013.27 1013.67 1014.00 1014.31 1014.53 1014.73 1014.97 1015.35 1015.73 1016.20 1016.56 1017.11 1017.45 1017.81 1018.27 1018.55 1018.81 1018.94 1019.22 1019.68 1019.79 1020.01 1020.31 1020.44 1020.54 1020.50 1020.74
1008.83 1009.12 1009.40 1009.59 1009.81 1010.36 1010.75 1010.89 1011.05 1011.31 1011.70 1012.24 1012.71 1013.24 1013.25 1013.34 1013.84 1013.97 1014.05 1014.35 1014.74 1015.05 1015.21 1015.67 1016.03 1016.47 1016.89 1017.37 1017.73 1018.14 1018.59 1018.90 1019.25 1019.51 1019.84 1020.06 1020.34 1020.48 1020.62 1020.66 1020.94 1021.08 1021.27
1008.92 1009.06 1009.24 1009.60 1009.99 1010.26 1010.69 1011.08 1011.22 1011.41 1011.82 1012.41 1012.98 1014.06 1014.16 1014.08 1013.66 1014.40 1014.27 1014.31 1014.64 1015.12 1015.48 1015.85 1016.22 1016.77 1017.26 1017.72 1018.07 1018.35 1018.75 1019.20 1019.60 1020.00 1020.19 1020.51 1020.80 1021.06 1021.23 1021.35 1021.63 1021.72 1022.02
1008.90 1009.06 1009.22 1009.50 1010.00 1010.40 1010.67 1010.86 1011.22 1011.58 1012.09 1012.59 1012.72 1014.83 1015.17 1015.35 1014.57 1014.49 1014.36 1014.50 1014.78 1015.13 1015.78 1016.17 1016.66 1017.06 1017.67 1018.21 1018.61 1018.78 1018.95 1019.52 1019.77 1020.18 1020.68 1021.12 1021.33 1021.59 1021.82 1022.01 1022.23 1022.35 1022.59
1009.01 1009.13 1009.24 1009.58 1010.07 1010.55 1010.90 1010.99 1011.10 1011.52 1011.96 1012.24 1013.04 1013.89 1015.39 1015.70 1015.91 1014.66 1014.48 1014.61 1015.07 1015.51 1016.02 1016.67 1017.02 1017.31 1017.89 1018.33 1018.74 1019.16 1019.42 1019.52 1020.15 1020.73 1021.15 1021.56 1021.75 1022.06 1022.17 1022.47 1022.74 1023.02 1023.06
1009.01 1009.36 1009.51 1009.84 1010.18 1010.49 1010.81 1011.03 1011.18 1011.61 1011.98 1012.46 1012.81 1013.11 1014.05 1015.95 1015.82 1015.29 1014.80 1015.00 1015.37 1015.73 1016.37 1016.95 1017.41 1017.62 1018.05 1018.55 1019.05 1019.43 1019.80 1019.93 1020.46 1020.97 1021.35 1021.79 1022.16 1022.39 1022.58 1022.90 1023.25 1023.50 1023.55
1008.90 1009.32 1009.73 1009.99 1010.27 1010.62 1010.86 1011.03 1011.41 1011.79 1011.91 1012.42 1012.72 1012.82 1013.51 1014.91 1015.56 1015.09 1015.24 1015.34 1015.60 1016.06 1016.59 1017.15 1017.47 1017.88 1018.26 1018.68 1019.08 1019.71 1020.20 1020.42 1020.83 1021.29 1021.58 1022.01 1022.35 1022.60 1022.94 1023.30 1023.71 1023.88 1024.04
1008.94 1009.22 1009.71 1009.95 1010.22 1010.75 1011.11 1011.32 1011.58 1011.86 1012.08 1012.28 1012.52 1012.75 1013.36 1013.73 1015.36 1015.38 1015.14 1015.57 1015.77 1016.33 1016.81 1017.32 1017.71 1017.99 1018.59 1018.93 1019.37 1019.90 1020.55 1020.80 1021.15 1021.48 1021.93 1022.37 1022.53 1022.83 1023.21 1023.59 1023.99 1024.25 1024.41
1009.09 1009.22 1009.50 1009.75 1009.98 1010.55 1011.07 1011.27 1011.56 1011.97 1012.56 1012.73 1012.92 1013.50 1014.15 1013.93 1014.86 1014.99 1015.19 1015.46 1016.02 1016.59 1017.09 1017.53 1018.00 1018.33 1018.89 1019.23 1019.89 1020.33 1020.77 1021.25 1021.43 1021.79 1022.36 1022.54 1022.76 1023.03 1023.36 1023.86 1024.18 1024.47 1024.62
1009.15 1009.23 1009.19 1009.38 1009.83 1010.32 1010.93 1011.26 1011.59 1011.79 1012.39 1012.83 1013.00 1013.23 1013.43 1013.87 1014.41 1015.13 1015.47 1015.43 1016.04 1016.83 1017.35 1017.67 1018.22 1018.67 1019.12 1019.75 1020.27 1020.68 1021.09 1021.54 1021.55 1022.07 1022.66 1022.69 1022.92 1023.28 1023.58 1024.12 1024.39 1024.76 1024.94
1008.76 1009.16 1009.09 1009.28 1009.56 1010.09 1010.59 1010.99 1011.39 1011.81 1012.24 1012.58 1012.80 1012.68 1012.63 1013.45 1014.31 1015.02 1015.56 1016.22 1016.45 1016.76 1017.58 1017.97 1018.39 1019.01 1019.39 1019.92 1020.34 1020.86 1021.20 1021.75 1021.72 1022.02 1022.88 1022.83 1023.04 1023.49 1023.89 1024.31 1024.66 1025.05 1025.37
1008.63 1009.02 1008.96 1009.23 1009.60 1009.90 1010.15 1010.57 1011.07 1011.55 1011.90 1012.19 1012.06 1011.85 1011.90 1012.95 1014.21 1014.80 1015.49 1016.19 1016.56 1017.17 1017.64 1018.12 1018.69 1018.90 1019.58 1019.95 1020.18 1020.90 1021.27 1021.73 1022.03 1022.06 1022.88 1023.05 1023.05 1023.51 1023.98 1024.30 1024.78 1025.21 1025.50
1008.40 1008.76 1008.95 1009.13 1009.55 1009.87 1010.18 1010.53 1010.80 1011.38 1011.70 1011.71 1011.85 1012.06 1012.14 1013.23 1014.00 1014.96 1015.42 1015.85 1016.40 1017.08 1017.63 1018.11 1018.72 1018.90 1019.39 1019.93 1020.27 1020.84 1021.32 1021.68 1022.03 1022.14 1022.92 1023.16 1023.27 1023.58 1023.96 1024.25 1024.86 1025.46 1025.69
1008.16 1008.49 1008.83 1009.20 1009.39 1009.82 1010.22 1010.48 1010.73 1011.01 1011.46 1011.72 1011.92 1011.91 1012.31 1013.15 1013.86 1014.98 1015.28 1015.87 1016.50 1016.83 1017.41 1017.88 1018.55 1018.81 1018.96 1019.80 1020.47 1020.84 1021.23 1021.80 1021.98 1022.35 1022.85 1023.28 1023.37 1023.65 1024.03 1024.30 1024.89 1025.37 1025.75
1007.81 1008.26 1008.75 1009.21 1009.43 1009.90 1010.31 1010.62 1010.69 1010.84 1011.20 1011.70 1011.81 1012.07 1012.50 1013.05 1013.80 1014.64 1015.38 1015.94 1016.51 1016.71 1017.27 1017.80 1018.56 1018.62 1018.80 1019.91 1020.63 1020.97 1021.34 1021.89 1022.11 1022.47 1022.94 1023.35 1023.52 1023.87 1024.12 1024.48 1024.91 1025.37 1025.69
1007.43 1008.04 1008.68 1009.20 1009.51 1009.96 1010.41 1010.70 1010.70 1010.80 1011.07 1011.48 1011.81 1012.25 1012.66 1013.04 1013.73 1014.24 1015.22 1015.73 1016.41 1017.10 1017.55 1018.07 1018.45 1018.55 1018.96 1019.92 1020.77 1021.24 1021.42 1021.95 1022.19 1022.50 1022.98 1023.35 1023.64 1023.85 1024.12 1024.54 1024.96 1025.38 1025.67
1006.86 1007.54 1008.41 1009.12 1009.61 1010.00 1010.52 1010.74 1010.83 1010.96 1011.17 1011.22 1011.79 1012.16 1012.72 1013.16 1013.62 1013.87 1014.69 1015.38 1016.33 1017.10 1017.81 1018.03 1018.46 1018.34 1019.11 1019.76 1020.60 1021.24 1021.58 1021.97 1022.32 1022.69 1023.05 1023.40 1023.77 1023.98 1024.29 1024.60 1024.94 1025.30 1025.59
1006.54 1007.21 1008.00 1008.73 1009.50 1009.97 1010.60 1010.87 1011.06 1011.18 1011.40 1011.50 1011.70 1012.08 1012.53 1012.94 1013.37 1014.06 1014.77 1015.28 1016.20 1017.02 1017.58 1017.96 1018.28 1018.74 1018.91 1019.42 1020.27 1021.42 1021.81 1022.16 1022.42 1022.80 1022.93 1023.26 1023.70 1023.96 1024.23 1024.56 1024.85 1025.09 1025.46
1006.43 1007.04 1007.72 1008.27 1009.16 1009.84 1010.30 1010.73 1011.23 1011.36 1011.55 1011.75 1011.87 1012.17 1012.39 1012.97 1013.62 1014.14 1014.72 1015.37 1016.13 1016.76 1017.37 1017.61 1018.21 1018.76 1019.16 1019.57 1020.72 1022.08 1022.44 1022.49 1022.63 1022.88 1022.92 1023.29 1023.59 1023.78 1024.02 1024.35 1024.58 1024.86 1025.13
1005.90 1006.77 1007.41 1007.93 1008.67 1009.38 1009.87 1010.28 1010.68 1011.21 1011.66 1011.84 1012.06 1012.28 1012.54 1013.11 1013.60 1014.20 1014.63 1015.21 1016.03 1016.63 1017.05 1017.23 1017.96 1018.67 1019.10 1019.69 1020.29 1021.45 1022.43 1023.01 1022.81 1022.95 1022.90 1023.12 1023.31 1023.47 1023.69 1023.90 1024.19 1024.42 1024.66
1005.63 1006.39 1006.91 1007.47 1008.23 1008.99 1009.62 1010.20 1010.74 1011.33 1011.62 1012.03 1012.34 1012.69 1012.96 1013.42 1013.76 1014.17 1014.56 1015.10 1015.65 1016.43 1016.75 1017.17 1017.58 1018.03 1018.83 1019.82 1019.84 1020.59 1021.75 1022.13 1022.45 1022.81 1022.86 1022.83 1023.00 1023.18 1023.21 1023.31 1023.50 1023.69 1024.04
1004.97 1005.98 1006.62 1007.10 1007.84 1008.65 1009.31 1009.81 1010.26 1010.68 1011.22 1011.64 1012.15 1012.73 1013.11 1013.45 1013.79 1014.12 1014.61 1014.96 1015.52 1015.91 1016.52 1017.07 1017.27 1017.60 1018.34 1019.43 1020.03 1020.10 1020.39 1020.97 1021.54 1022.55 1022.49 1022.44 1022.37 1022.62 1022.56 1022.66 1022.82 1023.08 1023.21
1004.38 1005.45 1006.37 1006.92 1007.34 1008.16 1008.91 1009.37 1009.96 1010.47 1010.88 1011.22 1011.99 1012.50 1012.87 1013.33 1013.77 1014.07 1014.42 1014.80 1015.37 1015.58 1016.04 1016.86 1017.17 1017.43 1017.82 1018.72 1019.01 1019.81 1020.26 1020.57 1020.65 1021.45 1021.90 1021.77 1021.99 1021.85 1021.80 1021.92 1022.05 1022.22 1022.33
1004.24 1005.15 1006.10 1006.70 1007.03 1007.79 1008.45 1008.98 1009.54 1010.10 1010.52 1010.92 1011.69 1012.34 1012.72 1013.16 1013.67 1014.02 1014.22 1014.65 1015.07 1015.40 1016.17 1016.65 1016.80 1017.20 1017.47 1017.90 1018.50 1018.75 1019.20 1019.81 1020.17 1020.78 1021.22 1021.30 1021.31 1021.11 1020.93 1021.25 1021.61 1021.39 1021.56
Wind_Speed
4 7 12 12 10 11 13 16 14 15 17 18 19 21 22 22 22 22 22 21 22 22 23 24 22 22 24 25 23 22 21 21 22 22 23 24 24 25 24 22 20 17 22
10 9 12 13 12 11 13 15 16 16 17 19 18 17 18 22 22 21 21 21 22 23 24 25 23 23 26 25 23 22 20 20 20 22 23 24 24 24 24 22 22 20 22
11 10 12 15 14 13 12 14 16 18 17 18 19 18 19 18 21 21 20 20 21 22 24 23 24 25 27 25 24 23 22 22 20 21 20 11 14 22 22 22 21 23 23
10 9 10 14 15 14 13 14 15 17 18 17 17 16 18 20 19 20 21 21 21 21 23 24 24 27 25 24 23 23 23 21 19 18 10 11 12 20 19 20 21 21 21
8 7 9 13 13 13 13 13 15 16 17 17 14 11 10 15 21 19 20 21 22 22 23 24 26 25 23 22 22 21 22 21 19 14 11 10 10 17 20 20 19 20 19
8 7 10 12 15 14 14 15 19 20 20 21 22 15 5 5 14 18 19 20 22 23 21 22 24 23 21 20 21 20 21 19 17 12 11 13 11 18 19 19 19 19 18
6 6 8 16 15 16 16 18 19 19 19 17 19 15 6 12 12 15 18 20 21 22 22 22 20 20 18 20 15 21 20 20 12 10 10 10 12 19 20 20 19 19 19
9 6 8 15 16 15 16 17 14 12 10 16 21 24 21 16 18 15 16 19 21 21 20 19 17 18 19 16 17 20 19 19 13 11 10 8 17 19 20 20 19 19 20
8 7 6 7 12 13 12 12 12 12 11 13 18 20 23 20 21 18 18 20 20 20 18 17 18 18 16 15 22 21 19 19 12 8 10 7 18 20 20 20 20 20 20
7 8 7 7 9 7 6 10 11 12 14 16 21 20 24 22 20 20 21 20 20 18 15 15 17 17 15 16 24 22 19 18 10 8 8 8 19 21 21 20 19 19 19
4 7 7 8 8 7 6 8 11 14 19 15 14 18 14 11 17 21 16 22 20 17 14 15 15 16 15 16 23 22 17 7 9 7 5 17 20 21 21 20 19 19 19
6 5 6 5 7 8 6 6 6 9 8 7 8 6 9 16 14 11 15 20 20 16 13 14 15 15 11 9 10 13 7 8 8 7 4 17 20 20 20 19 19 18 18
7 5 6 6 7 8 8 6 4 3 4 4 6 9 11 12 11 9 8 8 8 14 6 7 9 5 7 6 8 7 9 7 7 7 8 16 19 20 20 18 17 17 16
8 7 7 7 7 6 5 6 6 5 4 4 4 8 15 9 10 10 8 9 7 5 6 5 3 6 7 7 12 11 10 8 5 5 8 14 18 19 19 18 17 16 16
8 7 7 8 7 6 5 4 6 6 5 6 5 8 10 10 11 9 9 8 8 7 6 5 5 6 7 7 12 11 9 9 7 5 4 13 14 17 18 18 16 16 15
10 10 9 7 7 7 4 4 5 7 6 5 8 10 12 10 11 9 9 8 8 8 7 7 6 5 5 7 9 10 10 8 8 7 6 7 12 14 16 17 16 16 15
11 11 10 8 7 7 6 6 4 6 7 7 6 14 13 11 12 12 8 7 8 7 8 7 5 4 5 5 8 8 9 9 8 9 6 4 7 10 11 14 16 16 15
13 13 10 8 7 8 7 4 3 4 6 7 6 8 11 12 13 11 9 8 7 5 6 4 7 5 4 6 6 7 7 7 9 9 7 5 4 5 9 11 12 14 15
15 15 14 10 8 9 6 4 4 6 4 6 7 8 10 11 11 10 8 8 8 8 4 5 2 7 5 5 6 5 6 6 7 8 8 6 6 5 4 9 12 11 13
15 14 14 11 10 9 8 5 3 3 4 4 8 9 12 9 11 8 7 9 9 9 7 4 6 4 6 6 7 6 5 5 5 6 8 7 6 6 6 6 6 7 12
14 15 15 15 11 9 6 6 5 5 5 3 6 10 11 9 10 9 7 9 8 11 10 8 6 10 3 4 5 4 3 2 6 5 5 6 7 7 6 6 5 4 7
17 15 13 13 13 10 7 5 3 4 3 4 4 6 9 8 9 7 10 8 10 7 8 8 6 3 3 4 5 3 4 1 1 4 4 7 9 7 8 9 9 9 7
17 17 15 14 13 10 10 7 6 5 3 4 5 5 6 6 8 10 8 8 8 6 7 8 7 10 6 2 7 5 3 4 3 3 6 6 8 7 8 9 11 11 10
16 15 15 16 14 11 12 9 11 8 8 6 6 8 8 6 5 9 10 7 8 5 6 8 8 8 6 10 2 1 1 5 4 2 2 5 6 9 9 8 10 11 12
17 16 14 17 17 13 12 11 10 9 6 5 5 6 6 5 5 6 8 9 8 6 5 8 6 6 6 6 5 4 2 1 3 3 3 4 3 6 7 9 10 9 12
14 14 16 17 18 17 13 13 13 13 10 8 8 8 8 6 3 5 6 9 8 10 10 7 7 8 8 6 4 6 5 4 4 3 2 2 4 4 7 5 7 8 8
Wind_Direction
184 157 161 152 149 140 129 121 115 116 119 117 115 116 114 118 123 126 126 126 126 123 121 113 110 113 113 112 109 106 105 105 105 104 101 99 98 98 94 90 91 92 90
146 166 163 153 153 152 143 132 123 120 119 120 118 116 124 126 130 129 130 131 130 128 126 121 122 124 121 113 107 104 104 102 104 104 104 104 102 100 94 92 88 87 90
153 161 164 158 158 156 149 138 132 128 126 125 126 130 128 135 131 135 135 136 134 131 128 128 127 126 123 116 112 107 103 98 97 96 98 95 97 99 99 94 96 95 93
157 161 160 162 159 157 154 148 136 130 126 124 127 135 140 139 141 140 141 140 135 132 132 133 133 129 123 119 116 112 108 101 96 95 94 100 100 100 96 94 95 95 97
157 159 159 158 162 158 154 144 138 134 131 125 108 120 132 146 141 148 143 138 137 136 142 138 134 130 124 120 118 114 109 103 99 96 92 95 101 106 104 100 99 95 97
152 156 156 146 142 148 150 138 129 121 113 102 88 38 6 201 154 149 140 140 140 140 140 137 138 131 123 117 115 114 110 110 100 92 93 98 102 109 110 110 110 107 111
134 146 140 137 140 146 145 148 145 147 146 140 127 115 190 223 201 148 144 143 139 138 139 140 140 127 121 125 110 119 115 107 105 100 102 103 112 116 116 113 113 115 114
135 129 132 139 144 143 157 159 155 160 192 163 170 158 169 211 205 163 147 143 138 136 140 144 136 126 121 111 111 118 115 112 105 107 106 111 122 122 120 119 120 119 117
132 132 134 146 156 155 162 165 179 184 180 168 157 153 165 187 212 171 152 144 139 138 146 144 133 129 119 107 122 122 119 117 115 117 119 127 128 127 124 125 125 123 121
134 146 162 163 161 157 168 195 182 165 153 152 161 169 177 161 209 177 149 142 139 142 147 138 134 129 116 106 126 124 124 119 117 112 126 130 134 131 129 128 126 125 123
146 150 162 170 178 159 160 161 163 155 159 183 161 180 197 184 198 174 158 142 139 143 145 128 131 115 107 113 127 126 124 127 121 112 123 141 139 134 131 132 131 131 126
184 179 166 158 155 147 156 148 148 154 168 183 197 182 186 180 176 159 148 137 139 140 138 132 129 119 109 112 127 121 128 132 124 117 135 144 139 136 133 136 134 134 132
185 170 164 152 148 153 162 159 155 147 158 156 178 192 184 171 153 145 136 136 141 134 137 132 132 124 116 119 138 130 125 138 134 131 153 145 142 140 140 140 138 138 134
169 175 160 156 145 149 142 164 156 161 155 178 186 162 148 143 150 142 147 147 140 137 137 135 141 132 126 126 134 137 137 142 142 126 157 146 144 147 147 144 145 145 143
156 156 156 143 144 144 131 138 152 167 169 165 150 145 137 148 145 146 147 148 145 147 147 139 148 145 137 126 142 140 136 139 138 128 144 148 150 153 155 151 151 153 148
152 154 150 145 141 135 137 151 151 169 163 170 168 151 145 152 146 154 152 150 154 153 155 153 161 155 136 113 138 143 138 147 138 137 145 156 154 159 161 156 160 161 160
161 154 149 147 138 133 136 162 154 166 162 174 168 165 159 158 151 147 147 149 158 154 156 149 152 128 116 119 141 141 140 152 146 148 143 154 160 160 159 166 168 170 171
148 155 145 149 139 134 144 152 158 149 166 173 165 160 155 151 153 146 151 148 150 142 154 154 162 134 144 126 130 152 145 156 154 154 157 155 157 163 168 169 177 181 181
155 150 153 150 149 138 138 131 126 150 145 160 160 167 162 155 153 148 150 145 150 153 164 164 157 145 156 133 136 141 147 153 159 162 166 158 170 161 155 182 181 189 193
152 151 153 155 152 140 147 147 111 123 142 151 161 168 162 158 149 146 153 149 157 165 170 173 154 168 159 144 133 142 160 158 152 174 176 173 178 175 175 181 191 196 200
150 151 158 155 158 153 154 152 162 161 161 139 163 167 164 155 157 152 161 155 165 174 177 165 153 169 141 133 103 104 52 151 168 176 167 179 188 191 184 192 193 195 210
157 159 156 153 159 166 164 161 143 148 157 161 141 158 164 159 171 162 175 172 175 173 172 159 162 122 95 169 149 101 135 121 215 205 181 186 197 194 197 204 205 205 208
161 165 163 159 161 166 167 149 134 152 129 142 161 158 169 161 159 174 182 170 165 169 174 171 168 162 151 195 172 148 130 204 125 169 217 200 186 194 204 207 211 212 210
168 162 162 164 162 165 166 168 166 175 173 178 168 174 178 168 166 162 177 157 167 160 163 183 181 175 137 179 99 186 150 153 159 199 214 207 200 201 206 208 214 215 214
160 162 162 168 170 165 171 170 168 176 179 148 152 146 177 165 184 172 172 164 183 179 152 198 184 173 162 160 162 155 147 122 110 143 205 220 181 202 207 207 209 212 214
156 157 165 168 171 176 173 168 174 175 171 164 167 179 191 187 179 185 178 178 185 176 189 193 196 192 180 163 182 179 162 168 171 156 144 177 198 236 219 203 210 218 211